Wind_Speed
6 4 3 2 3 4 4 4 3 2 1 1 2 3 5 6 8 8 8 8 9 10 11 11 10 8 7 6 7 7 8 9 10 10 10 11 11 11 11 11 11 11 11 11 10 10 10 9 9 8 8 8 8 8 7 6 5 4 4 2 1 1 1 1 1 2 2 2 2 2 2 1 1 1 2 2 3 3 4 5 6 6 7 7 8
6 4 4 4 5 5 5 5 4 3 2 2 2 3 3 4 7 7 7 7 8 9 10 10 9 8 7 7 7 7 8 9 9 10 10 11 11 12 12 12 12 12 11 11 11 11 10 10 9 9 9 9 9 9 8 8 7 5 4 3 2 2 2 2 2 2 2 2 2 2 1 1 0 1 2 2 3 4 5 6 6 7 7 7 8
7 5 5 5 6 6 6 5 5 4 3 3 3 4 3 3 5 6 6 6 7 8 8 9 9 8 7 7 7 7 8 9 10 10 11 11 12 12 12 12 12 12 12 11 11 11 10 10 10 10 10 10 10 10 9 9 8 7 6 4 3 3 3 2 3 2 2 2 2 2 1 1 1 2 2 3 4 5 5 7 7 7 7 8 9
7 6 7 7 7 7 7 6 5 5 4 3 4 5 4 3 3 4 5 5 6 7 7 8 8 8 7 7 7 7 8 9 10 10 11 11 12 12 12 13 13 12 12 12 11 11 11 10 10 10 10 10 10 11 10 9 8 7 6 6 5 4 4 4 4 3 3 3 3 3 3 3 3 3 3 4 5 5 6 7 8 8 8 9 9
8 8 8 8 8 8 7 6 6 6 5 4 4 5 5 4 3 3 4 4 5 5 6 8 8 8 7 7 7 7 8 9 10 10 11 11 12 12 13 13 13 13 13 12 12 11 11 11 11 11 11 11 11 11 11 11 9 8 7 6 6 5 5 5 5 5 5 4 5 5 4 5 5 5 4 5 6 6 7 8 9 9 9 9 10
10 10 10 9 9 8 8 7 7 6 5 4 4 5 5 4 3 2 2 3 4 4 5 7 7 7 7 7 6 7 8 8 9 10 11 11 12 12 13 13 14 14 13 13 12 12 11 11 11 11 11 11 11 12 12 12 11 9 8 7 7 6 6 6 6 6 6 6 6 6 6 7 7 6 6 6 7 7 8 9 10 10 10 11 12
12 11 11 11 10 10 9 8 7 6 5 4 4 5 5 4 3 2 2 1 2 3 4 6 7 7 6 6 6 7 7 8 9 10 10 11 12 12 13 14 14 14 14 14 13 13 12 12 11 11 11 11 11 12 13 13 12 10 9 8 8 7 7 7 7 8 8 8 7 8 8 8 8 8 8 8 8 8 9 10 11 11 11 12 13
13 13 13 13 12 11 11 9 7 5 3 4 4 4 5 4 2 2 2 0 1 3 3 5 6 6 6 6 6 7 7 8 9 9 10 11 11 12 13 14 14 14 14 14 14 13 13 13 12 12 12 12 12 12 12 13 13 11 10 9 8 8 8 7 8 9 9 9 9 9 10 10 9 10 10 10 10 10 11 11 12 13 13 13 14
14 14 15 14 14 13 12 10 8 6 4 4 4 4 4 4 3 2 2 1 1 2 3 4 6 6 6 6 6 6 7 8 8 9 9 10 10 11 12 13 14 14 14 14 14 14 14 14 14 13 13 12 12 12 12 12 12 12 11 10 9 8 8 8 8 10 10 9 9 9 10 10 11 11 11 11 11 12 12 13 13 14 14 14 15
15 16 16 16 16 15 14 12 12 13 10 7 6 4 4 5 4 3 2 0 0 1 3 4 6 6 6 5 5 6 6 7 8 8 9 9 10 10 11 13 13 14 15 15 15 15 15 15 15 15 14 13 13 12 12 12 12 12 12 11 10 9 9 8 9 10 9 8 8 8 9 10 11 12 12 13 13 13 13 14 15 15 15 15 15
17 17 18 18 18 18 17 16 15 14 11 8 6 5 4 5 5 3 2 1 1 1 3 4 5 6 6 5 5 5 6 6 7 7 8 8 9 10 11 12 13 14 15 15 16 16 16 16 16 16 15 15 14 14 13 13 12 12 12 11 10 10 10 9 9 10 9 8 7 7 8 10 11 12 13 13 14 14 14 15 15 15 15 15 16
18 19 19 19 19 20 19 16 11 9 8 7 7 5 4 4 5 4 2 2 2 2 2 4 5 5 5 5 4 5 5 6 6 6 7 7 8 9 10 12 13 14 15 15 16 17 17 17 17 17 16 16 16 15 14 14 13 13 12 12 11 11 11 10 10 10 10 11 8 6 7 9 11 11 13 14 14 15 15 16 16 16 16 16 16
19 20 20 20 20 21 20 15 10 9 9 8 8 5 4 4 5 4 3 3 3 3 3 4 5 5 5 4 4 4 5 5 5 6 6 6 7 8 10 11 12 13 14 15 16 17 18 18 18 17 17 17 17 17 16 15 14 13 13 13 12 12 11 11 10 9 10 9 6 5 7 8 10 11 13 14 15 16 16 16 16 16 16 16 16
20 21 21 21 21 22 20 17 13 13 13 12 10 8 5 5 5 5 4 3 4 4 3 4 5 5 5 5 4 4 5 5 5 5 5 5 6 7 9 10 12 13 14 15 16 17 18 18 18 18 17 17 17 17 17 16 15 14 13 13 13 12 11 11 10 10 9 5 4 7 8 9 10 11 12 14 15 16 17 17 17 17 17 17 17
21 22 22 21 22 22 20 18 16 16 16 14 12 9 7 6 6 6 5 3 3 4 4 4 4 5 5 5 4 4 5 4 4 4 4 4 5 6 8 9 11 12 14 15 16 17 17 18 19 18 18 18 18 18 18 17 16 14 13 12 13 13 12 12 12 12 8 5 8 11 11 11 10 11 12 14 15 16 17 18 18 18 18 18 17
22 23 23 22 23 22 21 20 18 16 15 14 12 10 8 8 7 7 6 4 3 3 4 4 4 4 5 5 5 5 4 4 3 4 4 4 4 6 7 8 10 12 13 14 15 16 17 18 18 19 19 18 18 18 18 17 17 15 13 13 14 15 14 13 12 11 9 9 11 12 12 12 12 12 13 14 15 16 17 17 18 18 18 17 17
22 24 24 24 24 23 22 20 17 15 15 14 14 13 12 11 9 8 7 5 4 4 5 5 5 4 4 4 4 4 4 4 3 3 3 3 4 5 6 8 9 11 12 14 15 16 17 17 18 18 19 19 19 19 18 18 17 15 14 14 15 16 15 14 12 11 11 11 11 12 13 12 13 13 13 14 15 16 17 17 18 18 18 17 18
23 24 26 26 25 24 23 21 18 18 18 17 17 17 15 14 12 10 8 7 6 5 5 6 5 4 4 3 3 4 4 3 2 2 2 2 3 5 6 7 8 10 12 13 15 16 16 17 18 18 19 19 19 19 19 18 17 15 15 14 15 16 16 14 12 11 10 11 12 13 13 13 13 14 14 15 16 16 17 17 18 18 18 18 18
24 26 27 26 25 25 25 24 21 20 21 21 20 20 17 15 14 12 11 9 8 7 6 6 6 6 5 3 3 3 3 2 2 1 1 2 3 4 5 7 8 10 11 13 14 15 16 17 18 18 19 19 19 19 18 18 17 16 15 15 16 17 15 13 11 11 10 12 14 14 15 14 14 14 14 15 16 16 17 17 17 18 18 18 19
25 26 26 26 26 26 26 24 22 21 22 22 22 21 19 16 14 13 13 12 10 9 8 7 8 7 6 4 3 2 2 2 1 0 0 1 2 4 5 6 8 9 11 12 14 15 16 17 18 18 19 19 19 19 18 17 17 16 16 16 16 15 13 11 11 12 13 14 14 15 16 16 15 15 15 15 16 16 17 18 18 18 18 19 19
25 26 26 26 26 26 25 23 22 22 22 21 21 21 19 17 15 14 14 13 12 11 9 8 9 8 7 6 5 3 3 2 1 1 1 1 2 4 5 6 8 9 10 11 13 15 16 17 18 18 19 19 19 19 18 17 17 16 15 15 15 14 12 12 12 13 15 15 16 16 16 16 16 16 16 16 16 17 18 18 18 19 19 19 20
24 25 25 25 24 22 21 21 21 21 21 20 19 19 18 17 16 16 15 14 13 11 11 10 10 9 9 8 6 5 4 3 3 2 2 2 3 4 5 6 7 8 9 11 12 14 16 17 18 18 19 19 19 19 18 17 16 16 15 15 14 13 12 12 12 14 16 16 17 17 16 16 16 16 16 17 17 18 19 19 19 19 19 20 21
25 23 24 24 22 20 19 19 19 18 18 19 18 18 18 18 17 16 16 15 14 12 11 11 11 10 10 9 8 7 5 4 4 3 3 3 3 5 6 7 8 8 9 10 11 13 15 17 18 18 18 18 18 18 18 16 16 17 15 14 13 13 13 12 14 15 16 17 17 16 16 17 17 17 16 17 19 20 19 19 18 19 20 20 21
25 24 25 24 21 20 19 18 18 17 17 18 18 18 18 18 17 17 16 15 14 13 11 11 11 11 10 10 9 8 6 5 5 4 4 4 4 5 7 8 8 8 9 9 11 13 15 16 17 18 18 18 18 18 17 17 17 17 16 14 12 12 14 15 15 16 15 16 17 17 17 17 18 17 17 18 19 20 20 19 19 19 20 21 21
28 26 25 24 23 21 20 19 18 18 18 18 18 18 18 17 17 16 15 14 14 13 11 10 10 11 10 10 9 8 7 6 6 5 5 5 6 7 8 9 9 9 9 9 10 12 14 15 17 17 17 17 17 17 17 16 16 17 16 13 13 13 14 15 16 15 16 17 17 17 18 18 18 17 17 19 20 20 20 19 19 20 20 21 21
30 27 26 25 24 22 21 19 19 19 18 18 18 18 17 17 16 15 13 12 11 10 9 8 9 10 10 10 9 8 8 7 7 6 6 7 7 8 9 10 10 10 10 10 11 12 14 15 16 16 17 17 17 17 16 16 16 16 16 14 14 14 15 16 15 16 17 18 18 18 19 18 18 18 18 19 20 20 20 19 20 21 21 21 21
30 29 28 26 25 23 22 21 20 19 19 19 18 18 17 16 16 14 12 10 8 7 7 7 7 8 9 9 9 8 8 8 8 8 8 8 9 9 11 11 11 11 11 11 11 12 14 15 16 16 16 16 16 17 17 17 17 16 16 14 14 15 17 16 16 17 18 18 18 18 19 18 18 18 19 20 20 20 20 20 20 21 21 21 22
32 30 29 27 26 25 23 22 21 20 20 19 18 17 16 16 15 13 11 9 7 6 6 6 6 7 8 9 9 9 9 9 9 9 9 10 10 10 11 11 12 12 12 12 13 13 14 15 15 15 15 16 16 16 17 17 18 16 16 15 12 14 16 16 17 18 18 18 18 19 19 18 18 19 20 20 20 19 20 20 21 21 22 22 23
31 30 28 27 27 26 25 23 22 21 20 19 16 16 16 15 14 12 11 8 7 7 6 6 6 7 8 8 9 9 9 9 10 10 10 11 11 11 11 12 12 12 13 13 14 14 15 15 15 15 15 15 15 16 17 17 18 17 16 16 13 12 13 15 17 17 18 19 19 20 19 19 19 20 20 20 20 20 20 20 21 21 22 23 24
30 30 29 29 28 27 26 24 23 22 20 18 16 16 16 15 14 12 10 8 7 7 7 7 7 7 8 8 9 9 10 10 10 10 11 11 11 12 12 12 12 13 13 14 14 15 16 16 15 15 14 14 14 15 16 17 17 17 16 16 15 14 14 16 18 18 19 20 20 20 19 19 20 20 20 20 20 20 20 21 21 22 22 23 25
31 31 30 30 30 29 27 25 23 23 20 18 16 17 16 14 13 11 9 8 7 6 7 8 8 8 8 8 9 9 9 10 10 10 11 11 11 12 12 13 13 13 14 14 14 15 16 16 16 16 15 14 15 15 16 16 16 16 16 17 16 15 15 17 18 18 20 20 19 19 19 19 19 19 20 20 20 20 20 21 21 22 23 24 25
32 30 31 31 31 30 28 26 24 23 21 18 17 17 16 14 12 10 8 7 6 6 7 8 9 9 9 9 9 9 9 9 10 10 11 11 12 13 13 13 14 14 14 14 15 16 16 16 16 16 16 15 15 15 16 16 16 16 17 18 16 15 17 18 18 18 19 20 19 18 18 19 19 19 19 19 20 20 20 21 22 23 24 25 26
32 30 31 32 31 30 28 27 25 24 22 19 19 18 17 15 13 11 8 7 6 6 7 8 9 9 9 9 9 9 9 9 10 10 11 11 12 13 13 13 14 15 15 15 16 16 17 17 17 17 16 15 15 15 16 16 17 18 18 19 17 16 18 18 19 19 17 18 19 18 18 18 18 18 19 19 19 20 21 21 23 24 25 25 26
30 31 31 32 31 31 28 26 25 24 24 21 21 20 18 16 14 12 9 7 6 6 7 8 9 10 10 10 10 10 10 10 10 10 11 11 12 12 13 13 14 15 16 17 17 17 17 18 18 18 15 15 16 15 16 17 18 18 18 18 18 18 18 19 21 20 17 16 18 19 19 19 19 18 18 19 19 20 21 22 23 24 25 25 26
31 31 32 33 32 32 30 28 26 25 26 24 23 22 20 17 14 12 9 7 6 6 7 9 10 10 10 11 10 10 10 10 10 10 11 11 12 12 13 14 15 16 17 18 18 18 18 18 19 18 14 14 17 17 17 18 18 18 17 18 18 19 19 20 21 20 18 16 16 17 17 18 19 20 20 19 20 21 22 23 24 24 25 26 27
33 30 31 33 34 32 31 29 28 27 28 26 26 25 22 18 15 12 9 7 6 7 8 9 10 11 11 11 11 11 11 10 10 10 11 11 12 13 14 15 16 18 18 19 19 19 19 20 20 17 13 15 18 17 18 18 18 18 18 18 18 18 19 20 20 20 19 18 17 16 15 15 16 18 19 20 20 21 23 24 24 25 25 27 28
38 32 31 34 35 34 33 31 29 28 30 29 28 27 24 20 15 12 10 8 7 8 8 9 10 11 11 11 11 12 11 11 10 11 11 12 13 14 15 17 18 19 20 20 20 20 20 21 20 16 14 16 17 16 17 18 18 18 18 18 17 18 19 19 19 19 19 19 18 17 16 15 15 17 19 21 22 22 23 24 24 25 26 27 29
47 40 35 35 37 37 35 33 31 30 31 30 29 27 27 23 17 13 10 8 8 8 8 9 10 11 12 12 12 12 12 11 11 12 12 13 14 16 17 18 19 20 21 21 21 21 21 20 20 18 15 17 17 16 17 17 18 18 18 17 17 18 18 18 19 19 19 18 18 18 18 18 18 17 17 20 23 23 23 24 25 25 27 28 29
50 46 40 38 39 39 38 35 33 33 32 31 30 28 28 27 20 15 12 9 9 8 8 9 10 11 12 13 13 13 13 13 12 13 14 14 15 17 18 19 21 22 22 22 22 22 21 19 20 20 18 18 18 17 17 17 17 18 18 17 17 18 18 18 18 18 18 18 17 18 18 19 19 19 18 19 22 24 24 24 25 26 27 28 29
50 50 44 41 41 41 41 39 35 35 34 32 32 30 29 30 25 18 15 12 10 9 8 8 9 11 12 13 14 14 14 14 14 15 16 16 16 18 20 20 22 23 23 23 23 23 22 21 20 20 18 18 18 18 17 17 18 19 18 17 17 17 18 18 18 17 17 17 17 18 19 19 19 20 21 20 21 23 25 25 26 28 28 29 30
51 55 51 46 44 44 44 42 39 38 37 34 33 32 30 31 29 23 18 15 12 9 8 8 9 10 11 12 14 14 14 15 15 16 17 17 17 18 20 21 22 23 24 24 24 23 23 22 21 20 18 18 18 18 17 17 18 19 18 17 17 18 18 18 17 17 17 17 17 17 18 20 20 21 22 22 22 23 24 25 25 27 29 30 30
49 54 54 48 45 46 47 45 42 40 39 37 34 33 31 32 32 28 23 18 14 10 8 8 8 9 10 12 13 14 14 15 16 17 17 18 18 18 20 22 23 24 24 24 25 24 23 22 21 21 21 19 19 18 17 17 18 19 18 18 18 18 18 18 18 17 16 16 17 18 18 19 20 21 22 23 23 23 25 26 26 25 27 29 31
47 50 52 50 49 48 48 48 46 43 41 39 36 34 33 33 34 31 27 22 16 12 9 8 8 9 10 12 13 14 14 15 17 18 18 19 18 18 20 22 23 24 24 24 24 24 23 22 21 21 21 21 19 18 18 18 18 18 18 18 19 19 18 18 17 17 17 16 17 19 19 19 20 21 23 23 23 24 26 27 27 27 27 28 30
49 50 51 51 52 51 50 50 48 45 43 41 38 36 35 35 35 34 30 25 19 15 11 8 8 8 10 12 13 14 15 16 17 19 19 19 19 19 20 22 23 24 24 24 24 24 23 22 21 21 21 20 19 18 18 18 18 18 18 17 19 19 18 18 16 16 17 17 17 18 19 20 20 21 23 23 23 24 26 28 28 29 29 29 30
54 52 50 50 51 51 51 51 48 47 45 44 41 39 38 36 36 35 32 28 22 17 13 11 9 8 9 12 14 15 16 16 18 20 20 20 20 20 20 21 22 23 23 24 24 24 22 22 22 22 20 20 19 18 18 19 19 19 18 17 18 18 17 18 16 15 16 17 17 18 19 20 19 20 23 23 23 25 27 27 28 30 30 31 32
56 56 52 49 50 50 51 49 47 48 48 46 44 42 40 37 36 35 32 28 23 20 17 15 13 10 9 10 13 16 17 18 19 20 21 21 20 20 21 21 22 24 24 23 24 24 22 21 22 22 20 20 19 19 19 19 19 19 18 16 17 17 17 17 16 15 16 16 17 18 19 20 20 19 21 23 23 24 27 27 28 31 32 33 34
53 56 55 52 51 52 52 50 50 52 52 50 47 44 42 38 36 35 34 31 27 24 23 19 16 12 11 11 14 17 18 19 20 21 22 22 22 21 22 21 22 24 24 23 24 23 22 22 22 21 20 20 20 20 20 20 19 19 18 17 17 17 17 17 16 15 16 17 17 18 19 20 21 20 20 22 24 24 27 28 28 30 33 34 35
51 52 53 53 53 54 55 54 53 54 54 53 49 45 42 39 38 38 37 35 31 28 26 23 20 16 14 15 16 18 20 21 22 22 22 23 23 22 23 22 22 24 25 23 23 23 22 22 22 21 21 20 20 21 21 21 20 19 19 17 17 17 17 17 16 16 16 16 16 17 19 20 22 23 22 23 24 25 28 30 29 29 33 36 36
54 52 51 53 52 53 56 57 56 55 55 55 52 46 42 41 40 41 40 38 36 33 29 26 24 21 19 19 19 20 21 22 24 23 23 23 23 23 23 22 22 24 25 23 23 23 22 22 22 22 21 20 20 20 20 21 20 20 19 17 17 17 17 17 17 17 17 17 16 15 17 20 21 23 24 24 25 26 28 31 31 30 32 35 36
56 54 51 52 52 52 54 56 57 56 55 55 53 45 42 42 42 43 42 39 38 36 32 29 28 25 23 22 22 22 22 23 25 25 23 24 23 23 22 22 23 24 25 24 22 22 22 21 21 22 21 20 20 20 20 20 20 19 18 17 17 17 18 18 17 17 18 18 18 14 14 18 20 22 24 25 27 27 28 31 33 33 33 34 35
54 56 55 53 52 51 49 51 55 54 51 52 51 45 42 43 44 45 43 40 39 39 36 32 30 28 25 24 23 23 23 24 26 26 25 24 23 22 22 23 24 25 25 24 23 22 22 22 21 22 22 21 20 21 20 20 20 20 19 18 18 18 18 18 17 18 19 19 20 18 16 16 18 20 22 25 28 29 30 31 33 35 35 35 35
Wind_Direction
264 266 258 237 245 235 210 200 188 196 209 300 351 12 25 32 31 34 33 36 40 43 43 44 42 39 41 45 46 45 44 40 35 29 25 20 16 13 10 11 17 26 30 30 28 24 20 14 9 7 2 356 353 349 350 349 351 354 351 353 334 265 233 195 179 163 158 150 136 126 119 111 79 32 20 12 9 7 0 353 352 354 356 358 357
261 253 249 231 236 238 226 218 212 218 237 279 308 330 359 21 26 29 33 37 41 45 45 46 45 42 42 45 46 48 47 43 38 31 27 22 17 12 9 8 13 22 25 27 26 25 20 14 10 7 4 357 351 346 346 346 347 348 343 338 323 290 271 250 228 202 191 191 188 168 155 173 261 336 349 350 351 354 353 346 344 347 348 350 350
255 244 242 228 230 237 234 228 229 230 242 273 297 306 329 359 19 23 31 37 41 47 49 49 49 47 43 45 46 49 50 47 43 36 31 25 20 14 9 8 12 19 22 24 23 25 21 15 10 7 5 357 350 345 344 345 346 345 338 328 313 292 277 264 249 236 223 223 235 237 223 249 279 300 323 333 339 345 347 341 338 339 342 344 344
247 238 237 231 230 237 238 236 242 244 251 275 293 301 316 333 1 12 25 34 39 45 53 54 52 53 48 46 46 48 52 49 46 40 35 27 22 14 11 11 13 17 19 21 20 22 21 15 10 7 5 358 351 345 344 345 348 345 337 325 310 293 281 274 265 254 247 244 250 260 263 269 284 295 308 319 328 337 340 335 332 333 337 340 339
243 233 235 234 234 239 240 241 246 250 256 273 291 300 307 318 331 342 14 31 38 44 55 61 57 57 54 51 48 49 52 50 47 41 36 29 23 16 13 14 15 16 17 18 17 17 18 15 10 6 3 358 352 345 344 344 348 347 339 325 311 299 285 280 274 267 261 257 256 262 269 273 281 289 301 311 320 329 332 328 326 329 332 335 335
245 232 232 235 234 238 240 239 244 250 257 273 290 297 299 306 309 308 343 25 43 47 56 66 65 62 59 56 52 50 52 49 45 41 36 30 25 19 15 15 17 17 17 16 13 12 12 13 9 4 1 357 352 346 343 343 346 347 343 330 317 306 294 286 279 274 267 261 257 261 266 270 277 285 295 304 312 319 323 321 322 325 329 332 333
246 234 233 234 231 232 235 234 237 248 261 281 296 301 301 298 297 294 300 6 58 60 62 71 72 67 64 61 57 53 50 47 43 39 35 30 26 20 17 16 17 17 16 13 9 6 5 6 5 3 359 356 352 345 342 342 343 344 345 337 325 314 302 294 287 280 272 265 259 262 266 268 274 280 288 294 301 308 312 314 318 322 325 329 332
244 237 235 236 235 232 231 230 230 247 277 299 308 312 310 304 298 290 298 302 88 78 74 75 76 71 67 63 60 55 49 45 40 37 33 30 26 20 17 15 15 15 14 11 7 2 358 358 358 358 357 355 352 346 342 340 340 340 341 341 334 322 312 303 293 285 278 271 265 267 267 267 273 278 284 289 294 299 304 308 313 317 321 325 328
241 240 240 239 240 234 230 229 232 252 286 307 309 313 316 314 308 294 306 319 100 88 84 77 77 72 67 62 61 58 49 44 37 33 31 27 23 18 15 13 12 12 12 10 6 1 356 354 352 352 353 354 352 347 344 340 338 337 338 341 338 328 323 316 302 289 280 276 273 272 267 267 273 277 281 285 290 295 300 304 309 313 316 321 323
242 242 243 243 241 238 233 236 249 261 272 288 293 296 308 312 309 300 296 288 136 104 95 82 77 73 66 60 59 60 53 46 38 32 28 23 18 14 12 10 10 9 10 9 6 2 357 353 351 349 350 351 351 348 345 341 338 336 337 340 337 331 329 326 315 299 288 283 275 271 266 267 272 276 280 283 288 293 298 302 305 309 312 316 318
245 243 244 245 243 243 245 253 261 264 264 268 274 279 294 305 303 294 282 234 169 139 113 99 87 79 71 62 57 60 57 50 42 34 27 20 13 10 8 7 6 6 7 7 6 3 358 354 352 350 349 349 350 349 347 344 340 337 337 338 336 330 329 332 326 310 307 301 280 274 272 269 274 277 281 285 290 294 297 299 302 305 308 311 312
244 242 244 246 247 249 257 267 265 255 253 256 262 266 280 295 293 284 266 221 176 163 143 118 102 93 82 72 62 62 62 55 47 37 29 18 9 5 4 3 2 2 3 5 5 2 359 355 353 351 349 349 350 350 349 347 343 340 337 337 335 331 330 333 328 316 317 311 290 285 283 276 279 282 285 288 292 295 296 298 301 304 307 309 312
241 241 243 246 249 252 261 267 258 247 247 253 260 265 278 284 282 275 254 214 184 173 165 140 120 110 99 90 75 67 65 59 52 42 31 16 6 1 360 360 358 358 359 1 3 2 359 356 354 352 350 349 350 351 349 347 346 346 341 337 336 335 331 326 321 315 318 316 305 305 299 291 289 288 289 291 293 296 297 300 303 306 309 312 315
241 241 243 245 249 254 260 263 263 257 250 251 258 262 274 281 277 271 256 220 193 182 172 157 136 124 117 109 93 78 69 62 56 49 35 17 6 358 356 356 354 353 355 358 360 0 358 356 354 352 352 351 351 350 349 347 348 350 347 342 339 336 330 321 316 315 317 318 331 329 320 309 300 296 294 295 297 298 299 302 306 308 312 315 318
241 240 242 245 248 254 258 260 269 265 252 248 250 253 261 272 274 274 265 237 204 190 181 171 150 138 130 121 109 92 77 68 59 54 40 21 7 356 352 351 351 349 350 354 356 358 357 355 353 351 351 351 351 350 349 348 350 352 350 349 342 335 331 324 317 319 317 304 319 327 325 319 310 304 300 299 299 299 301 303 307 310 313 316 318
240 239 239 243 246 251 255 259 269 262 246 242 244 251 259 268 270 271 273 256 228 207 196 188 173 157 141 128 117 104 90 78 64 57 44 23 5 354 349 347 346 345 347 349 352 355 355 354 351 350 350 350 350 349 348 348 351 351 351 353 343 336 334 327 320 313 301 297 315 324 324 323 315 308 304 300 299 299 301 304 307 309 312 314 315
239 239 238 239 243 248 253 258 261 244 234 241 250 256 259 265 267 265 271 268 254 235 221 209 196 180 159 141 124 112 101 88 72 59 45 21 1 351 346 344 342 341 343 345 349 351 352 352 350 348 348 349 349 348 348 348 350 349 350 353 341 334 331 324 317 307 295 299 316 322 321 322 316 310 306 301 299 300 301 304 306 308 310 311 312
239 238 237 238 240 246 249 253 250 234 233 243 252 256 256 260 263 262 266 269 266 253 239 227 216 204 186 162 138 121 109 100 85 64 47 19 356 348 342 340 339 338 340 341 345 347 348 349 348 347 346 347 347 346 347 347 347 347 351 351 338 330 327 321 317 314 307 307 317 320 320 319 313 310 307 303 301 301 302 304 305 307 309 309 310
237 236 237 239 240 245 248 251 250 240 238 244 252 252 252 257 258 260 262 264 267 261 253 243 233 223 213 194 165 141 124 116 103 78 49 17 352 344 339 336 336 336 337 339 342 343 345 345 345 345 345 347 346 346 346 345 344 345 351 348 335 329 327 324 324 323 313 311 319 321 320 316 311 309 308 304 303 304 304 305 306 307 308 309 310
234 236 238 241 243 247 250 252 248 243 242 245 250 248 249 256 254 255 259 260 264 264 260 254 247 239 229 220 202 181 161 151 144 153 4 1 351 343 337 334 334 334 334 337 339 340 341 342 343 343 344 345 345 345 344 344 342 344 350 346 335 331 328 327 330 325 315 318 325 324 319 314 311 312 310 306 306 307 307 307 309 308 309 309 310
230 235 237 239 241 245 248 248 243 241 241 241 245 245 247 253 252 253 256 258 261 263 263 260 256 250 243 235 228 219 208 201 208 235 281 335 347 341 336 335 332 333 333 335 337 337 338 338 340 341 343 344 343 343 343 344 341 343 351 345 336 333 331 332 330 321 320 325 327 324 316 311 311 313 311 308 308 310 309 310 310 310 309 310 311
229 234 234 235 235 237 240 241 239 237 236 234 238 240 243 248 251 254 255 258 260 262 263 263 261 257 251 245 240 235 231 231 235 253 282 320 339 338 335 334 331 331 331 333 335 334 335 336 338 339 341 342 341 341 343 344 340 343 350 344 337 337 334 332 327 322 325 326 324 321 315 311 312 314 312 310 310 311 311 311 311 311 310 311 312
228 232 233 233 232 234 234 234 230 225 226 227 231 236 239 243 248 252 255 257 261 263 263 263 263 259 255 252 249 247 243 244 250 263 286 316 329 335 334 332 329 330 330 332 333 332 332 333 334 336 338 339 340 341 343 342 338 340 346 343 339 340 336 331 328 327 325 321 319 319 317 315 314 313 312 311 312 313 313 312 312 312 312 312 313
223 228 232 235 233 230 226 227 222 213 215 220 227 234 239 242 245 250 253 257 261 264 263 262 263 261 259 257 256 257 256 256 262 276 294 314 325 331 333 332 329 328 329 331 331 330 328 329 331 333 335 336 338 341 341 340 336 336 341 341 339 339 338 331 326 324 321 319 320 321 321 319 316 314 313 313 314 314 313 313 314 314 314 314 314
215 221 229 231 228 224 222 223 219 212 213 219 228 235 240 244 246 248 251 255 259 263 265 262 263 263 262 262 262 263 264 266 270 285 301 312 320 327 330 330 329 327 328 329 328 326 325 326 328 330 332 334 336 338 340 339 334 333 336 336 337 340 336 328 323 322 323 325 327 326 324 320 317 315 313 314 316 314 314 314 315 315 315 315 315
209 212 220 224 222 223 223 220 216 215 216 222 231 237 240 244 246 248 248 251 255 261 267 266 265 265 265 264 264 266 267 271 277 290 301 308 315 322 327 327 327 328 327 327 325 323 322 323 325 327 329 331 334 336 337 336 333 333 333 332 337 336 329 325 324 327 330 332 331 328 324 320 316 314 314 315 316 315 314 314 315 316 316 316 315
206 207 212 217 219 223 223 217 216 219 221 225 231 236 239 241 243 243 242 241 245 255 266 270 270 268 267 265 265 267 270 274 281 291 298 304 312 317 322 325 325 327 327 326 323 320 319 321 322 324 327 329 333 335 335 335 333 334 335 335 333 328 326 326 328 332 335 335 331 326 322 319 315 314 315 317 316 315 314 315 316 317 317 316 315
205 207 212 217 217 221 221 216 218 221 223 228 231 233 235 236 236 233 232 235 242 254 262 268 273 271 270 269 269 269 272 277 283 291 299 303 310 315 319 322 325 327 327 325 321 319 318 319 321 322 324 327 331 333 334 335 332 333 336 332 324 326 330 328 331 335 336 334 328 324 322 319 316 315 317 317 316 315 315 317 317 317 317 315 314
205 209 214 218 218 221 222 218 220 222 224 228 228 230 231 229 227 225 228 237 246 255 261 265 269 273 274 273 272 273 276 282 288 295 302 306 310 314 317 321 325 327 328 326 322 318 318 318 319 319 320 323 327 331 335 335 331 333 336 330 321 329 335 328 330 335 334 331 327 323 322 319 316 315 316 316 315 315 316 317 317 317 316 314 313
203 209 214 218 218 221 224 221 220 222 222 224 223 225 226 224 222 222 229 239 247 258 266 269 269 271 275 277 276 279 283 288 296 301 306 311 313 315 318 321 326 329 329 327 323 320 318 319 317 316 316 318 323 331 335 333 331 332 334 331 323 322 331 330 330 333 332 329 325 323 320 317 316 317 317 315 315 316 317 317 317 316 314 313 313
202 207 211 216 219 221 225 222 221 222 218 217 218 220 221 217 216 219 227 235 245 259 269 273 273 274 277 280 282 286 292 297 303 308 310 313 315 317 319 323 328 331 330 328 325 322 320 320 318 315 315 319 323 330 333 330 330 331 329 331 324 318 326 330 330 332 331 326 323 321 318 317 317 317 316 315 316 316 317 317 315 314 313 313 313
202 205 208 213 218 223 226 223 223 221 215 213 214 216 214 211 212 215 220 229 243 258 269 276 276 279 282 284 289 293 299 304 308 312 314 315 316 319 321 326 331 331 331 331 328 325 323 322 319 315 317 322 322 326 332 329 330 330 328 328 323 318 322 327 331 333 329 324 322 320 318 319 319 318 317 316 317 317 317 315 314 314 314 314 315
201 200 205 213 220 227 229 226 226 222 213 212 212 210 208 209 214 216 218 224 239 255 265 275 277 281 285 288 294 298 303 307 311 314 317 319 319 321 326 331 333 332 334 334 332 328 325 323 318 316 321 324 320 325 332 328 326 327 326 324 320 320 323 326 329 331 330 323 322 324 322 321 319 317 316 317 318 317 316 315 314 315 315 316 316
202 201 206 215 223 230 232 228 228 223 213 212 211 206 205 209 214 216 218 222 236 253 262 270 275 279 284 289 295 298 303 306 312 316 319 322 322 325 331 335 335 335 337 336 333 330 327 323 318 318 326 325 319 325 330 324 322 324 323 321 318 319 322 325 326 327 329 326 324 326 325 323 321 318 317 318 318 316 315 316 317 317 317 318 319
203 203 208 218 225 230 233 230 229 224 215 214 210 204 204 208 211 214 218 225 239 251 258 265 271 276 281 287 293 296 301 305 310 315 319 322 323 327 332 335 336 336 337 336 333 330 326 321 316 320 330 324 318 323 325 321 319 321 322 319 316 316 321 326 327 327 329 328 327 326 325 324 321 319 319 318 316 316 317 318 319 318 319 321 323
208 207 211 222 228 231 234 232 230 224 216 216 211 205 206 207 211 215 218 225 239 250 254 260 268 274 279 283 290 293 297 301 305 310 316 320 322 326 330 332 334 334 335 333 331 330 327 320 315 322 331 318 314 319 320 318 317 319 320 318 316 316 322 328 329 328 327 328 328 327 326 321 313 312 314 315 316 318 319 319 319 320 322 324 326
226 226 221 224 229 233 236 233 230 224 219 219 214 209 210 211 212 214 217 225 235 247 251 257 266 273 277 281 286 290 292 296 300 305 311 316 320 323 327 329 330 331 331 329 330 330 329 323 316 322 328 315 310 314 315 315 316 317 317 316 315 317 323 329 329 327 325 328 329 327 326 321 315 314 316 317 318 319 319 319 320 322 324 327 327
234 236 229 226 229 233 235 235 231 225 223 222 217 214 215 216 214 212 217 225 231 241 247 254 263 271 276 278 280 285 289 291 295 300 305 311 317 320 324 326 326 326 326 327 328 329 330 323 313 316 322 313 309 313 315 315 314 315 315 315 315 320 327 329 327 327 327 329 330 327 325 322 320 319 317 316 317 318 318 319 320 323 326 327 325
234 234 231 228 230 232 234 236 231 226 225 226 221 218 220 221 218 214 218 222 226 233 240 247 257 266 271 275 277 280 284 288 290 295 301 308 316 319 322 324 323 323 324 325 326 327 329 321 311 312 314 313 313 314 315 314 311 312 313 314 317 322 326 326 327 330 330 329 329 326 323 321 319 319 318 315 315 317 318 319 321 324 325 325 324
233 232 233 231 231 232 234 235 233 228 226 227 224 221 224 225 221 220 221 221 221 224 233 243 250 258 265 270 274 278 280 284 287 292 299 306 315 318 320 323 321 321 322 323 323 324 326 320 313 312 311 313 313 310 310 310 308 309 310 313 318 322 324 326 330 332 330 329 328 324 321 320 319 319 318 317 316 316 317 320 322 323 324 324 324
236 234 234 231 230 232 233 234 235 232 228 228 224 222 226 227 224 224 223 221 219 220 228 238 247 253 260 267 271 275 277 280 284 290 297 305 314 318 321 323 321 320 321 321 321 321 322 320 316 312 310 310 307 304 308 310 308 309 311 315 320 322 324 328 331 331 330 328 326 324 322 321 319 318 317 316 315 315 316 319 322 324 324 323 324
239 237 234 230 232 234 233 234 236 235 231 230 225 222 226 227 226 224 223 222 219 220 225 234 248 256 261 266 270 273 274 277 282 287 295 303 311 318 321 322 320 320 320 319 319 319 320 320 316 312 310 306 302 303 309 311 310 310 313 318 321 322 326 329 330 331 331 327 325 324 323 321 318 315 315 315 314 315 315 317 321 323 323 323 323
236 234 232 233 235 235 233 233 236 235 232 230 226 222 223 226 226 225 224 224 220 219 224 234 247 258 265 268 270 273 273 275 280 286 294 301 308 315 320 322 320 319 318 317 317 316 319 319 313 310 308 304 300 304 308 308 310 311 314 319 321 323 326 327 328 329 328 326 325 324 323 320 317 313 312 313 313 314 315 317 320 322 322 323 323
234 232 232 235 236 234 234 235 237 237 233 229 226 222 221 223 224 225 226 226 222 220 222 230 242 255 267 272 272 273 274 275 279 286 292 298 304 311 318 321 321 318 317 316 315 314 317 318 313 309 306 302 301 304 305 304 308 311 315 319 320 322 323 322 326 327 324 324 324 322 320 318 316 311 310 311 311 312 314 317 321 322 322 322 321
234 232 232 234 236 235 235 236 240 243 238 230 226 223 221 223 224 226 228 228 225 224 224 228 235 247 263 274 276 273 274 274 277 283 288 293 298 306 315 319 320 318 316 315 314 314 315 316 314 310 307 303 303 305 303 302 307 311 314 317 316 318 319 317 322 324 319 321 321 319 318 316 314 310 307 307 308 310 313 317 319 320 321 321 320
233 232 233 234 237 238 237 238 243 248 245 235 229 226 221 222 225 226 228 228 225 224 225 226 230 240 255 271 277 275 273 273 274 279 284 289 294 301 309 312 318 320 316 314 313 313 315 315 313 310 307 305 305 306 304 303 307 310 312 313 312 314 313 312 318 320 316 317 317 317 316 313 310 307 305 305 306 309 311 314 317 318 320 320 320
234 234 237 238 238 240 239 241 246 250 249 241 233 228 223 222 225 227 229 229 226 225 226 226 229 238 255 273 279 277 274 271 271 274 280 287 290 297 303 305 312 319 316 312 313 313 314 314 313 311 306 304 304 305 305 305 307 309 309 310 310 308 307 308 313 314 313 315 316 316 314 311 309 307 305 303 305 307 308 311 315 317 318 319 320
240 236 238 240 241 242 243 243 246 249 248 243 236 230 227 226 225 226 229 229 227 226 228 229 231 238 255 275 283 280 274 270 268 270 277 283 287 293 301 301 306 315 315 311 312 313 314 314 313 311 307 302 301 302 304 306 307 306 307 308 307 304 304 306 309 310 311 311 313 314 313 311 309 308 307 304 304 307 307 309 313 316 317 318 319
242 240 237 238 239 242 244 243 244 246 245 242 237 230 229 231 229 226 227 228 227 227 230 233 237 243 255 271 284 284 276 269 267 267 273 280 284 290 299 302 305 313 314 310 311 312 312 313 313 311 307 301 299 300 303 305 305 304 305 306 303 301 302 304 307 309 309 308 308 310 309 308 307 307 306 305 304 305 306 308 311 315 316 316 317
239 240 235 234 235 239 243 242 240 243 244 241 234 228 228 231 230 228 227 227 228 231 233 237 242 249 258 269 281 284 277 269 265 265 271 278 282 288 297 304 306 311 313 309 308 310 310 311 312 311 307 300 297 300 302 303 302 301 301 301 300 300 302 303 307 308 308 308 307 306 302 301 303 304 304 304 302 303 306 309 312 315 316 315 317
234 237 235 234 235 234 238 241 239 239 239 236 229 225 229 232 229 229 228 227 231 236 237 240 246 252 259 268 278 281 275 267 263 264 271 277 280 285 295 305 308 309 311 309 306 307 309 309 310 311 307 300 296 298 301 300 298 297 297 298 298 300 302 303 305 307 308 310 310 309 304 297 297 300 303 304 304 306 309 310 312 314 316 318 320
Height
5884 5885 5885 5886 5887 5887 5888 5888 5888 5888 5888 5889 5889 5889 5889 5889 5888 5888 5887 5887 5886 5884 5884 5883 5882 5881 5880 5879 5878 5877 5876 5876 5875 5875 5874 5874 5874 5874 5873 5873 5873 5873 5873 5873 5872 5872 5871 5871 5870 5870 5870 5869 5868 5868 5868 5868 5868 5868 5868 5868 5868 5867 5867 5867 5867 5867 5867 5867 5867 5866 5866 5866 5866 5865 5865 5865 5864 5864 5863 5863 5863 5862 5862 5861 5861
5884 5884 5885 5886 5886 5887 5887 5887 5887 5887 5888 5888 5888 5888 5888 5888 5888 5888 5888 5887 5886 5885 5884 5883 5882 5882 5881 5880 5879 5878 5877 5876 5875 5875 5874 5874 5874 5874 5874 5873 5874 5874 5873 5873 5873 5872 5872 5871 5871 5870 5870 5869 5868 5868 5868 5868 5868 5868 5868 5868 5868 5868 5868 5868 5867 5867 5867 5867 5867 5867 5867 5866 5866 5866 5865 5865 5864 5864 5864 5863 5863 5862 5862 5861 5861
5883 5883 5884 5885 5886 5886 5886 5887 5887 5887 5887 5887 5888 5888 5888 5888 5888 5888 5888 5887 5886 5885 5884 5883 5883 5882 5881 5880 5879 5878 5877 5876 5875 5875 5874 5874 5874 5874 5874 5874 5874 5874 5874 5873 5873 5873 5872 5871 5871 5870 5870 5869 5868 5868 5868 5868 5869 5869 5869 5868 5868 5868 5868 5868 5868 5867 5867 5867 5867 5867 5867 5866 5866 5866 5865 5865 5864 5864 5864 5863 5863 5862 5862 5861 5860
5883 5883 5884 5884 5885 5885 5886 5886 5886 5887 5887 5887 5887 5887 5887 5887 5887 5887 5887 5887 5886 5886 5885 5884 5883 5882 5881 5880 5879 5878 5877 5876 5875 5875 5875 5874 5874 5874 5874 5874 5874 5874 5874 5874 5873 5873 5873 5872 5871 5870 5870 5869 5869 5868 5868 5868 5869 5869 5869 5868 5868 5868 5868 5868 5868 5868 5868 5868 5867 5867 5867 5867 5866 5866 5865 5865 5864 5864 5864 5864 5863 5862 5862 5861 5860
5882 5883 5883 5884 5884 5885 5885 5886 5886 5886 5886 5886 5886 5886 5887 5886 5886 5886 5886 5887 5886 5886 5885 5884 5883 5882 5881 5880 5880 5879 5878 5876 5876 5875 5875 5875 5874 5874 5874 5874 5874 5875 5875 5874 5874 5873 5873 5872 5872 5871 5870 5870 5869 5868 5868 5868 5869 5869 5869 5869 5868 5868 5868 5868 5868 5868 5868 5868 5868 5867 5867 5867 5866 5866 5865 5865 5864 5864 5864 5864 5863 5862 5861 5861 5860
5882 5882 5883 5883 5884 5884 5885 5885 5885 5885 5885 5885 5886 5886 5886 5886 5886 5886 5886 5886 5886 5886 5885 5884 5883 5883 5882 5881 5880 5879 5878 5877 5876 5875 5875 5875 5874 5874 5873 5874 5874 5875 5875 5874 5874 5873 5873 5873 5872 5871 5871 5870 5869 5869 5869 5868 5869 5869 5869 5869 5868 5868 5868 5868 5868 5868 5868 5868 5868 5868 5867 5867 5866 5866 5865 5865 5864 5864 5864 5863 5863 5862 5861 5860 5860
5881 5882 5882 5883 5883 5884 5884 5884 5884 5885 5885 5885 5885 5885 5885 5885 5885 5885 5885 5885 5885 5885 5885 5884 5884 5883 5882 5881 5880 5879 5878 5877 5876 5876 5875 5875 5874 5874 5873 5874 5874 5874 5875 5875 5874 5874 5873 5873 5872 5872 5871 5870 5870 5869 5869 5869 5869 5869 5869 5869 5868 5868 5868 5868 5868 5868 5868 5868 5868 5868 5867 5867 5866 5866 5865 5864 5864 5864 5864 5863 5862 5862 5861 5860 5859
5881 5881 5882 5882 5883 5883 5884 5884 5884 5884 5884 5884 5884 5884 5885 5885 5884 5885 5884 5885 5885 5884 5884 5884 5883 5883 5882 5881 5880 5879 5878 5878 5877 5876 5876 5875 5875 5874 5873 5873 5874 5874 5875 5875 5874 5874 5873 5873 5872 5872 5871 5871 5870 5870 5869 5869 5869 5869 5869 5869 5868 5868 5867 5867 5867 5867 5867 5866 5867 5867 5867 5867 5866 5866 5865 5864 5864 5864 5864 5863 5862 5861 5861 5860 5859
5880 5881 5881 5882 5882 5883 5883 5883 5883 5883 5884 5884 5884 5884 5884 5884 5884 5884 5884 5884 5884 5884 5884 5883 5883 5883 5882 5881 5880 5879 5878 5878 5877 5876 5876 5876 5875 5874 5874 5873 5874 5874 5874 5874 5874 5874 5873 5873 5872 5872 5871 5871 5870 5870 5869 5869 5868 5868 5868 5868 5868 5867 5867 5867 5866 5865 5865 5864 5865 5865 5866 5866 5865 5865 5865 5864 5864 5863 5863 5863 5862 5861 5860 5859 5859
5879 5880 5881 5881 5882 5882 5882 5883 5883 5883 5883 5884 5884 5883 5883 5884 5884 5884 5883 5883 5883 5883 5883 5883 5882 5882 5882 5881 5880 5879 5878 5877 5877 5877 5876 5876 5875 5875 5874 5873 5873 5874 5874 5874 5874 5873 5873 5872 5872 5871 5871 5871 5870 5870 5869 5869 5868 5867 5867 5867 5867 5866 5866 5866 5865 5863 5863 5863 5863 5863 5864 5864 5864 5864 5864 5863 5863 5863 5863 5862 5861 5860 5860 5859 5858
5879 5879 5880 5880 5881 5881 5881 5882 5883 5883 5883 5884 5884 5883 5883 5883 5883 5883 5883 5883 5883 5883 5882 5882 5882 5882 5881 5881 5881 5879 5878 5877 5877 5877 5876 5876 5876 5875 5874 5874 5873 5873 5873 5874 5873 5873 5872 5871 5871 5871 5870 5870 5870 5869 5869 5868 5867 5867 5866 5867 5866 5865 5865 5866 5865 5863 5862 5862 5862 5862 5862 5863 5863 5863 5863 5862 5862 5862 5862 5861 5860 5860 5859 5859 5858
5878 5878 5879 5879 5880 5880 5880 5881 5882 5882 5883 5883 5883 5883 5883 5883 5883 5883 5883 5883 5883 5882 5882 5882 5881 5881 5881 5881 5881 5879 5878 5877 5877 5877 5876 5876 5876 5875 5874 5874 5873 5873 5873 5873 5873 5872 5871 5871 5870 5870 5869 5869 5869 5868 5868 5867 5867 5866 5866 5866 5866 5865 5865 5865 5865 5863 5862 5861 5861 5861 5861 5861 5861 5861 5861 5861 5861 5861 5861 5860 5860 5859 5858 5858 5857
5876 5877 5878 5878 5879 5879 5879 5880 5881 5882 5882 5883 5883 5883 5882 5883 5883 5883 5883 5883 5882 5882 5882 5882 5881 5881 5881 5881 5881 5879 5878 5877 5877 5877 5876 5876 5876 5875 5875 5874 5873 5873 5873 5872 5872 5872 5871 5870 5869 5869 5869 5868 5868 5867 5867 5867 5866 5866 5865 5865 5865 5865 5864 5863 5863 5862 5861 5861 5861 5861 5860 5860 5860 5860 5860 5860 5860 5860 5859 5859 5858 5858 5857 5856 5856
5875 5876 5876 5877 5878 5878 5878 5879 5880 5881 5881 5882 5882 5882 5882 5882 5882 5882 5882 5882 5882 5882 5882 5882 5881 5881 5880 5880 5880 5879 5878 5877 5877 5876 5876 5876 5876 5875 5875 5874 5873 5873 5872 5872 5872 5871 5870 5869 5869 5868 5868 5867 5867 5867 5866 5866 5865 5865 5865 5865 5864 5864 5864 5862 5861 5861 5860 5860 5859 5860 5860 5860 5859 5859 5859 5859 5859 5859 5858 5857 5857 5856 5856 5855 5854
5874 5874 5875 5876 5876 5877 5877 5878 5878 5879 5880 5881 5881 5881 5881 5882 5882 5882 5882 5882 5882 5882 5882 5882 5881 5881 5880 5880 5879 5879 5878 5877 5877 5876 5876 5876 5876 5875 5874 5874 5873 5872 5872 5871 5871 5870 5870 5869 5868 5867 5867 5867 5866 5866 5865 5865 5865 5864 5864 5865 5864 5863 5863 5862 5861 5861 5860 5859 5859 5860 5860 5859 5859 5858 5858 5858 5858 5857 5857 5856 5856 5855 5855 5854 5853
5872 5873 5873 5874 5875 5876 5876 5876 5877 5878 5879 5879 5880 5880 5880 5881 5881 5881 5881 5881 5881 5881 5881 5881 5881 5881 5880 5879 5878 5878 5877 5877 5877 5876 5876 5876 5875 5875 5874 5874 5873 5872 5872 5871 5870 5870 5869 5869 5868 5867 5866 5866 5866 5865 5865 5864 5864 5864 5864 5864 5863 5862 5862 5862 5862 5861 5860 5860 5859 5859 5859 5859 5858 5858 5858 5857 5857 5856 5856 5855 5855 5854 5854 5853 5853
5870 5871 5872 5873 5873 5874 5874 5875 5876 5877 5878 5878 5879 5879 5880 5880 5880 5880 5880 5880 5880 5880 5880 5881 5881 5881 5880 5879 5878 5877 5877 5877 5877 5876 5876 5876 5875 5875 5874 5873 5873 5872 5871 5871 5870 5869 5869 5868 5867 5866 5866 5866 5865 5865 5865 5864 5863 5863 5863 5864 5863 5861 5861 5861 5860 5860 5860 5860 5859 5859 5859 5858 5858 5857 5858 5857 5856 5856 5855 5855 5854 5853 5853 5852 5852
5868 5869 5870 5871 5871 5872 5872 5873 5875 5876 5876 5877 5878 5878 5879 5879 5879 5879 5879 5879 5879 5879 5880 5880 5880 5880 5879 5878 5877 5877 5876 5876 5876 5876 5876 5876 5875 5875 5874 5873 5873 5872 5871 5870 5870 5869 5868 5868 5867 5866 5865 5865 5865 5865 5864 5863 5863 5862 5863 5864 5862 5860 5860 5860 5860 5859 5859 5859 5859 5859 5858 5857 5857 5857 5857 5856 5856 5855 5855 5854 5853 5853 5852 5852 5851
5866 5867 5868 5869 5870 5870 5870 5872 5873 5874 5875 5876 5877 5877 5878 5878 5878 5878 5878 5878 5878 5879 5879 5879 5879 5879 5879 5878 5877 5876 5876 5876 5876 5876 5875 5875 5875 5874 5874 5873 5873 5872 5871 5870 5869 5868 5868 5867 5866 5865 5865 5865 5864 5864 5864 5863 5862 5862 5863 5863 5861 5860 5859 5859 5859 5859 5859 5859 5859 5858 5857 5857 5856 5856 5856 5856 5855 5855 5854 5853 5852 5852 5851 5851 5850
5863 5864 5865 5866 5867 5868 5869 5870 5871 5872 5873 5874 5875 5876 5877 5877 5877 5877 5877 5877 5877 5877 5877 5878 5878 5878 5878 5877 5877 5876 5875 5875 5875 5875 5875 5875 5875 5874 5874 5873 5872 5872 5870 5870 5869 5868 5867 5866 5865 5865 5864 5864 5863 5863 5863 5862 5862 5861 5862 5861 5860 5859 5859 5859 5859 5859 5859 5859 5858 5857 5857 5856 5856 5855 5855 5855 5854 5854 5853 5852 5852 5851 5850 5850 5849
5861 5862 5863 5864 5865 5866 5867 5868 5869 5870 5871 5872 5874 5875 5875 5876 5876 5876 5876 5876 5876 5876 5876 5876 5877 5877 5877 5877 5876 5875 5875 5875 5875 5875 5875 5875 5874 5874 5873 5873 5872 5871 5870 5869 5868 5867 5867 5866 5865 5864 5863 5863 5863 5862 5862 5862 5861 5861 5861 5860 5859 5858 5858 5858 5858 5858 5858 5857 5857 5856 5856 5856 5855 5854 5854 5853 5853 5853 5852 5851 5851 5850 5849 5848 5847
5858 5859 5860 5862 5862 5864 5865 5866 5867 5868 5869 5871 5872 5873 5874 5874 5874 5874 5875 5875 5875 5875 5875 5875 5876 5876 5876 5876 5875 5875 5874 5874 5875 5875 5875 5874 5874 5873 5873 5873 5872 5871 5870 5869 5868 5867 5866 5865 5864 5863 5863 5862 5862 5861 5861 5861 5860 5860 5861 5859 5858 5858 5858 5858 5858 5857 5857 5856 5856 5856 5855 5855 5854 5853 5853 5852 5852 5851 5851 5850 5849 5849 5848 5847 5846
5855 5856 5857 5859 5860 5861 5863 5863 5864 5866 5867 5869 5870 5871 5872 5872 5872 5873 5873 5873 5874 5874 5874 5874 5874 5875 5875 5875 5875 5874 5874 5874 5874 5874 5874 5874 5873 5873 5873 5872 5871 5871 5870 5869 5868 5867 5865 5864 5864 5863 5862 5861 5861 5861 5860 5860 5859 5859 5859 5859 5858 5858 5857 5857 5857 5856 5856 5856 5856 5855 5854 5853 5853 5852 5852 5851 5851 5850 5850 5849 5848 5847 5847 5846 5845
5851 5853 5855 5856 5858 5859 5860 5862 5863 5864 5866 5867 5868 5870 5870 5871 5871 5871 5872 5872 5872 5873 5873 5873 5873 5874 5874 5874 5874 5874 5874 5874 5874 5874 5874 5873 5873 5873 5872 5872 5871 5870 5869 5868 5867 5866 5865 5864 5863 5862 5861 5860 5860 5860 5859 5859 5858 5858 5858 5858 5858 5858 5857 5857 5856 5856 5856 5855 5855 5854 5853 5852 5851 5851 5851 5851 5850 5849 5848 5847 5847 5846 5845 5844 5843
5848 5849 5851 5853 5855 5857 5858 5860 5861 5863 5864 5866 5867 5868 5869 5869 5869 5870 5870 5871 5871 5871 5872 5872 5872 5872 5873 5873 5873 5873 5873 5873 5873 5873 5873 5873 5873 5872 5872 5871 5871 5870 5869 5868 5867 5866 5864 5863 5862 5861 5860 5860 5859 5859 5858 5858 5857 5856 5856 5857 5858 5858 5857 5856 5856 5856 5855 5854 5853 5852 5851 5850 5850 5850 5850 5849 5849 5848 5847 5846 5845 5844 5844 5843 5842
5845 5847 5848 5850 5852 5854 5856 5858 5859 5861 5862 5864 5865 5866 5867 5867 5868 5868 5869 5869 5870 5870 5870 5871 5871 5871 5872 5872 5872 5872 5872 5872 5873 5873 5873 5873 5872 5872 5872 5871 5870 5869 5868 5867 5866 5865 5864 5863 5862 5861 5860 5859 5858 5857 5857 5857 5856 5855 5855 5855 5857 5856 5856 5855 5855 5854 5853 5852 5851 5850 5850 5850 5849 5849 5849 5848 5847 5846 5845 5844 5844 5843 5842 5841 5840
5842 5845 5846 5847 5850 5852 5853 5856 5857 5859 5861 5862 5864 5864 5865 5866 5866 5867 5868 5868 5869 5869 5869 5869 5869 5870 5870 5871 5871 5871 5871 5872 5872 5872 5872 5872 5872 5872 5871 5870 5870 5869 5868 5867 5866 5865 5864 5862 5861 5860 5859 5858 5858 5856 5856 5855 5854 5854 5854 5854 5855 5854 5853 5853 5853 5852 5851 5850 5850 5850 5849 5849 5848 5848 5847 5846 5846 5845 5844 5843 5842 5841 5841 5840 5839
5840 5842 5844 5846 5848 5850 5851 5854 5855 5857 5859 5860 5862 5863 5864 5865 5865 5866 5866 5867 5868 5868 5868 5868 5868 5868 5869 5870 5870 5870 5870 5871 5871 5871 5871 5871 5871 5871 5871 5870 5869 5868 5867 5866 5865 5864 5863 5862 5861 5859 5858 5858 5857 5856 5855 5854 5853 5853 5853 5852 5852 5853 5851 5851 5851 5850 5849 5849 5849 5849 5848 5847 5847 5846 5846 5845 5844 5844 5843 5842 5841 5840 5839 5838 5837
5836 5840 5842 5845 5846 5848 5849 5852 5854 5855 5857 5859 5860 5861 5862 5863 5864 5865 5866 5866 5867 5867 5868 5867 5867 5868 5868 5869 5869 5869 5869 5870 5870 5870 5870 5870 5870 5870 5870 5869 5868 5867 5866 5865 5864 5863 5862 5861 5860 5859 5858 5857 5856 5855 5854 5853 5852 5852 5853 5851 5851 5852 5851 5851 5850 5850 5849 5848 5848 5847 5846 5846 5845 5845 5844 5843 5843 5842 5841 5840 5840 5839 5838 5837 5836
5832 5837 5840 5842 5844 5846 5848 5850 5852 5854 5855 5857 5859 5860 5861 5862 5863 5864 5865 5865 5866 5866 5866 5866 5866 5867 5867 5868 5868 5868 5868 5869 5869 5869 5869 5870 5870 5869 5869 5868 5867 5866 5865 5865 5864 5863 5861 5860 5859 5858 5857 5856 5855 5854 5854 5853 5852 5852 5852 5852 5851 5851 5851 5850 5850 5849 5848 5847 5846 5846 5845 5845 5844 5843 5843 5842 5841 5840 5840 5839 5838 5838 5837 5836 5834
5827 5833 5837 5839 5842 5843 5846 5849 5850 5852 5854 5855 5857 5858 5860 5861 5862 5863 5864 5864 5864 5865 5865 5865 5866 5866 5867 5867 5867 5867 5867 5867 5868 5868 5869 5869 5869 5869 5868 5867 5866 5865 5864 5864 5863 5862 5861 5859 5858 5857 5856 5856 5854 5853 5853 5852 5851 5851 5850 5851 5850 5849 5850 5850 5849 5848 5847 5846 5845 5845 5844 5844 5843 5842 5842 5841 5840 5839 5838 5838 5837 5836 5835 5834 5833
5823 5828 5834 5836 5839 5841 5844 5847 5848 5850 5852 5854 5855 5857 5858 5860 5861 5862 5863 5863 5863 5864 5864 5864 5865 5865 5866 5866 5866 5866 5866 5867 5867 5868 5868 5868 5868 5868 5867 5866 5865 5864 5863 5863 5862 5861 5859 5858 5857 5856 5855 5855 5853 5852 5852 5851 5851 5850 5849 5849 5849 5849 5848 5848 5848 5847 5846 5845 5844 5844 5843 5842 5842 5841 5840 5839 5839 5838 5837 5836 5836 5835 5834 5832 5831
5821 5824 5831 5834 5836 5839 5841 5845 5847 5848 5850 5852 5853 5855 5857 5858 5860 5861 5861 5862 5862 5862 5863 5863 5864 5864 5865 5865 5865 5865 5865 5866 5866 5867 5867 5867 5867 5867 5866 5865 5864 5863 5862 5862 5861 5860 5858 5856 5855 5855 5855 5854 5852 5852 5852 5851 5850 5850 5849 5848 5847 5848 5847 5847 5846 5846 5846 5844 5842 5842 5841 5841 5840 5840 5839 5838 5837 5836 5836 5835 5834 5833 5832 5831 5829
5822 5823 5829 5832 5834 5837 5839 5843 5845 5846 5848 5850 5852 5854 5855 5857 5858 5859 5860 5860 5860 5861 5861 5862 5862 5863 5863 5864 5864 5864 5864 5865 5865 5866 5866 5866 5866 5866 5865 5864 5863 5862 5861 5861 5860 5859 5857 5855 5853 5854 5854 5853 5851 5851 5851 5850 5849 5849 5848 5847 5846 5846 5845 5845 5844 5844 5844 5843 5841 5840 5840 5839 5839 5838 5837 5836 5836 5835 5834 5834 5833 5832 5830 5829 5828
5822 5822 5827 5829 5832 5834 5837 5840 5843 5845 5847 5848 5850 5852 5854 5855 5857 5858 5858 5859 5859 5860 5860 5861 5861 5862 5862 5863 5863 5863 5863 5864 5864 5865 5865 5865 5865 5865 5864 5863 5862 5861 5860 5860 5859 5857 5855 5853 5851 5852 5853 5851 5850 5850 5850 5849 5849 5848 5847 5846 5845 5844 5844 5843 5843 5842 5842 5841 5840 5840 5839 5838 5836 5836 5836 5835 5834 5834 5833 5832 5831 5830 5829 5827 5826
5822 5820 5825 5828 5830 5832 5835 5838 5841 5843 5845 5847 5849 5850 5852 5854 5855 5856 5856 5857 5858 5858 5859 5859 5860 5860 5861 5861 5862 5862 5862 5863 5863 5864 5864 5864 5864 5864 5863 5862 5861 5860 5860 5859 5858 5856 5854 5852 5849 5850 5852 5851 5849 5849 5849 5849 5848 5847 5846 5845 5844 5843 5842 5841 5841 5840 5840 5840 5840 5839 5839 5838 5837 5836 5835 5834 5833 5832 5831 5830 5829 5828 5827 5826 5824
5821 5820 5823 5826 5828 5830 5833 5836 5839 5841 5843 5845 5847 5849 5850 5852 5853 5854 5855 5856 5856 5857 5857 5858 5858 5859 5859 5860 5861 5861 5861 5862 5862 5863 5863 5863 5863 5863 5862 5861 5860 5859 5859 5858 5857 5855 5854 5851 5847 5848 5852 5851 5850 5849 5848 5847 5847 5846 5846 5844 5844 5843 5841 5840 5840 5840 5839 5838 5838 5837 5837 5837 5836 5835 5833 5832 5831 5831 5830 5829 5828 5827 5826 5824 5823
5819 5820 5822 5824 5826 5828 5831 5834 5837 5839 5841 5843 5845 5847 5849 5850 5851 5852 5853 5854 5855 5855 5856 5856 5857 5857 5858 5859 5859 5860 5860 5861 5861 5861 5862 5862 5862 5862 5861 5860 5859 5859 5858 5857 5856 5854 5854 5851 5848 5848 5851 5850 5848 5847 5847 5846 5846 5845 5845 5843 5842 5841 5840 5839 5840 5839 5838 5837 5836 5835 5834 5834 5834 5833 5832 5831 5829 5829 5828 5827 5827 5826 5825 5823 5822
5817 5818 5820 5821 5823 5826 5828 5831 5834 5836 5839 5841 5843 5845 5847 5848 5850 5851 5852 5853 5853 5854 5854 5855 5855 5856 5857 5858 5858 5859 5859 5860 5860 5860 5861 5861 5861 5861 5860 5859 5859 5858 5857 5855 5854 5853 5852 5851 5848 5847 5849 5847 5845 5845 5845 5845 5844 5844 5843 5842 5841 5840 5839 5839 5838 5838 5836 5835 5834 5833 5832 5832 5831 5831 5831 5830 5828 5827 5827 5826 5825 5824 5824 5822 5821
5814 5816 5817 5818 5820 5823 5825 5828 5831 5834 5836 5838 5841 5843 5845 5847 5848 5849 5850 5851 5852 5852 5853 5853 5854 5855 5856 5856 5857 5857 5858 5859 5859 5859 5859 5860 5860 5859 5859 5858 5857 5856 5855 5854 5853 5852 5851 5850 5848 5847 5847 5845 5843 5844 5844 5843 5843 5843 5842 5841 5840 5839 5838 5837 5837 5836 5834 5833 5833 5832 5831 5830 5830 5829 5829 5829 5828 5826 5825 5825 5824 5823 5821 5820 5819
5810 5812 5814 5816 5818 5820 5822 5825 5828 5830 5833 5835 5838 5840 5842 5844 5846 5847 5848 5849 5850 5850 5851 5852 5852 5853 5854 5855 5855 5856 5857 5857 5857 5858 5858 5858 5859 5858 5857 5857 5856 5855 5854 5852 5851 5850 5849 5847 5845 5844 5844 5844 5843 5843 5842 5841 5841 5841 5841 5839 5838 5836 5836 5835 5834 5834 5833 5832 5831 5831 5830 5829 5828 5828 5827 5826 5826 5826 5824 5824 5824 5822 5820 5818 5818
5806 5809 5811 5813 5816 5818 5819 5822 5824 5827 5830 5832 5834 5837 5839 5841 5843 5844 5845 5846 5848 5849 5849 5850 5851 5852 5853 5853 5854 5854 5855 5855 5856 5856 5857 5857 5858 5857 5856 5856 5855 5853 5852 5851 5850 5849 5847 5846 5844 5842 5841 5842 5842 5841 5840 5840 5840 5840 5839 5837 5835 5834 5833 5833 5832 5832 5831 5831 5830 5829 5829 5828 5827 5826 5825 5825 5824 5824 5823 5822 5822 5822 5820 5818 5816
5803 5806 5808 5811 5813 5815 5816 5819 5821 5824 5827 5829 5832 5834 5836 5837 5839 5841 5842 5843 5845 5846 5847 5848 5849 5850 5851 5852 5852 5853 5853 5854 5854 5855 5855 5856 5856 5856 5855 5854 5853 5852 5851 5850 5849 5848 5846 5845 5843 5841 5840 5840 5840 5839 5838 5838 5838 5837 5836 5835 5833 5832 5831 5831 5830 5830 5830 5830 5829 5828 5827 5827 5826 5825 5824 5823 5822 5822 5821 5820 5819 5819 5819 5818 5815
5799 5802 5805 5807 5810 5812 5813 5815 5817 5820 5824 5826 5828 5831 5832 5834 5835 5837 5839 5841 5842 5844 5845 5846 5847 5848 5849 5850 5850 5851 5851 5852 5852 5853 5853 5854 5854 5854 5854 5853 5852 5851 5850 5849 5848 5846 5845 5844 5842 5840 5839 5838 5838 5838 5838 5836 5836 5835 5834 5833 5832 5831 5830 5829 5829 5829 5828 5828 5828 5827 5826 5826 5826 5824 5822 5822 5821 5820 5819 5818 5817 5816 5815 5815 5813
5795 5798 5801 5803 5807 5809 5811 5813 5815 5818 5820 5823 5825 5827 5829 5830 5832 5834 5836 5838 5840 5841 5843 5844 5844 5846 5847 5848 5849 5849 5849 5850 5850 5850 5851 5852 5852 5852 5852 5852 5851 5849 5849 5847 5846 5845 5844 5843 5841 5839 5838 5837 5836 5837 5837 5836 5834 5833 5833 5832 5831 5831 5830 5828 5828 5828 5827 5827 5826 5826 5825 5824 5824 5823 5821 5820 5820 5818 5817 5817 5815 5814 5813 5811 5810
5791 5794 5797 5800 5804 5806 5808 5811 5813 5814 5817 5820 5822 5823 5825 5827 5830 5832 5834 5836 5837 5839 5840 5841 5842 5843 5844 5845 5846 5847 5847 5848 5848 5848 5849 5850 5851 5851 5851 5850 5849 5848 5847 5846 5845 5844 5843 5842 5840 5838 5836 5835 5835 5835 5835 5834 5833 5832 5832 5831 5830 5830 5829 5827 5827 5826 5826 5826 5825 5825 5824 5823 5822 5822 5821 5819 5819 5817 5816 5815 5814 5812 5810 5809 5807
5787 5791 5793 5797 5800 5802 5804 5807 5809 5810 5813 5816 5818 5820 5822 5824 5827 5830 5832 5833 5834 5835 5836 5838 5839 5840 5842 5843 5844 5845 5845 5846 5846 5846 5847 5848 5848 5849 5849 5848 5848 5847 5846 5845 5843 5842 5841 5840 5839 5837 5835 5833 5833 5833 5832 5832 5832 5831 5830 5829 5829 5829 5828 5826 5826 5825 5825 5824 5824 5823 5822 5821 5820 5820 5819 5818 5817 5816 5814 5813 5813 5810 5807 5806 5805
5783 5786 5789 5792 5794 5796 5799 5803 5805 5807 5809 5812 5814 5817 5820 5822 5824 5826 5828 5830 5831 5832 5833 5834 5836 5838 5839 5840 5842 5843 5843 5844 5844 5844 5845 5845 5846 5847 5847 5846 5846 5845 5844 5843 5842 5841 5840 5839 5837 5836 5834 5833 5832 5831 5831 5830 5830 5829 5828 5827 5827 5827 5826 5825 5824 5824 5823 5823 5822 5822 5820 5819 5818 5816 5816 5816 5815 5814 5812 5810 5810 5810 5806 5803 5801
5777 5781 5785 5787 5789 5791 5793 5797 5800 5802 5804 5807 5811 5814 5817 5819 5820 5822 5824 5826 5827 5828 5830 5831 5833 5835 5837 5838 5839 5840 5841 5841 5842 5842 5842 5843 5844 5844 5845 5844 5844 5844 5842 5842 5841 5839 5838 5837 5836 5835 5833 5832 5831 5831 5830 5830 5829 5828 5827 5826 5826 5826 5825 5824 5823 5822 5822 5821 5821 5821 5819 5817 5816 5814 5813 5813 5812 5812 5810 5807 5807 5807 5806 5803 5800
5773 5777 5780 5782 5785 5787 5788 5791 5795 5797 5800 5803 5807 5810 5813 5815 5817 5818 5821 5823 5824 5825 5827 5829 5831 5832 5834 5835 5837 5838 5838 5839 5839 5840 5840 5841 5841 5842 5842 5842 5842 5842 5841 5840 5839 5838 5837 5836 5835 5833 5832 5831 5831 5830 5830 5829 5828 5827 5826 5826 5825 5825 5823 5822 5822 5821 5819 5819 5818 5819 5818 5816 5815 5813 5812 5811 5810 5809 5808 5806 5803 5803 5803 5802 5799
5768 5771 5774 5777 5779 5782 5784 5786 5789 5793 5796 5799 5803 5806 5808 5812 5814 5815 5818 5820 5822 5823 5825 5827 5828 5830 5831 5833 5834 5835 5836 5836 5837 5837 5838 5838 5839 5840 5840 5840 5840 5840 5839 5838 5837 5836 5835 5834 5833 5832 5831 5830 5830 5829 5829 5828 5827 5826 5825 5825 5824 5823 5822 5821 5820 5819 5817 5816 5815 5814 5815 5815 5814 5813 5811 5808 5807 5806 5806 5804 5802 5800 5799 5798 5796